Location: Madrid
(40.4167°N, 3.7036°W)
Time: 11:50:18
(UTC+00:00)

ISS - Pass Details

Date: 01 May 2025
Orbit: 416 x 419 km, 51.6° (Epoch: 14 May)

Event Time Altitude Azimuth Distance (km) Brightness Sun altitude
Rises 04:55:49 0° 312° (NW) 2,361 -0.2 -4.0°
Reaches altitude 10° 04:58:25 10° 333° (NNW) 1,497 -1.0 -3.6°
Maximum altitude 05:00:46 18° 17° (NNE) 1,119 -1.0 -3.2°
Drops below altitude 10° 05:03:08 10° 62° (ENE) 1,495 1.1 -2.7°
Sets 05:05:43 0° 83° (E) 2,358 2.0 -2.3°
